Regional Weather Roundup
Issued by NWS

Home | Current Version | Previous Version | Graphics & Text | Print | Product List | Glossary On
Versions: 1 2 3 4 5 6 7 8 9 10 11 12 13 14 15 16 17 18 19 20 21 22 23 24 25 26 27 28 29 30 31 32 33 34 35 36 37 38 39 40 41 42 43 44 45 46 47 48 49 50
000
ASUS45 KPSR 091510
RWRAZ

ARIZONA HOURLY REGIONAL WEATHER ROUNDUP
NATIONAL WEATHER SERVICE PHOENIX AZ
800 AM MST TUE FEB 09 2016

NOTE: FAIR INDICATES FEW OR NO CLOUDS BELOW 12,000 FEET WITH NO
SIGNIFICANT WEATHER AND/OR OBSTRUCTIONS TO VISIBILITY.

AZZ001>003-036-091600-
NORTHWEST ARIZONA

CITY           SKY/WX    TMP DP  RH WIND       PRES   REMARKS
BULLHEAD CITY  CLEAR     61  27  27 N28G33    30.28R
KINGMAN        PTCLDY    41  24  51 E8        30.36S
$$

AZZ004>008-015-016-018-091600-
NORTH CENTRAL ARIZONA

CITY           SKY/WX    TMP DP  RH WIND       PRES   REMARKS
GRAND CANYON   PTCLDY    25  19  78 NE7       30.46F WCI  17
WILLIAMS       CLEAR     30  16  55 SE9       30.48S WCI  22
PRESCOTT       PTCLDY    32  21  64 S7        30.39R WCI  26
FLAGSTAFF      CLEAR     36  15  42 E12       30.46S WCI  28
PAYSON         CLEAR     48  16  27 E8G16     30.38R
PAGE           CLEAR     32  25  75 W3        30.49S
$$

AZZ009>014-017-091600-
NORTHEAST ARIZONA

CITY           SKY/WX    TMP DP  RH WIND       PRES   REMARKS
WINSLOW        MOCLDY    24  19  81 E6        30.48R WCI  17
SAINT JOHNS    PTCLDY    24  19  81 S3        30.46R
WINDOW ROCK    CLEAR     23   0  36 CALM      30.45S
SHOW LOW       PTCLDY    27  19  74 CALM      30.48R
$$

AZZ023-091600-
GREATER PHOENIX AREA

CITY           SKY/WX    TMP DP  RH WIND       PRES   REMARKS
PHOENIX        CLEAR     63  24  22 E9        30.20R
BUCKEYE        CLEAR     50  25  37 N12       30.23S
GLENDALE       CLEAR     52  30  43 CALM      30.23R
LUKE AFB       CLEAR     49  33  52 NW6       30.20R
DEER VALLEY    CLEAR     56  23  27 NE12      30.21R
SCOTTSDALE     CLEAR     66  16  14 N9        30.23R
MESA-FALCON    CLEAR    N/A N/A N/A N13       30.20
MESA-GATEWAY   CLEAR     50  30  46 S3        30.21R
CHANDLER       CLEAR     50  28  43 NW5       30.20R
$$

AZZ027-028-091600-
SOUTHWEST MARICOPA COUNTY AND PINAL COUNTY

CITY           SKY/WX    TMP DP  RH WIND       PRES   REMARKS
CASA GRANDE    CLEAR     59  23  25 E7        30.21R
GILA BEND      CLEAR     53  26  35 NE6       30.18R
$$

AZZ503-504-507>509-091600-
SOUTHEAST ARIZONA

CITY           SKY/WX    TMP DP  RH WIND       PRES   REMARKS
TUCSON         CLEAR     53  20  27 SE12      30.23R
DAVIS-MONTHAN  CLEAR     56  19  23 SE10      30.22R
RYAN FIELD     CLEAR     46  27  46 SW3       30.23R
NOGALES        CLEAR     44  18  35 CALM      30.26R
SIERRA VISTA   CLEAR     44  20  38 SE6       30.32R
DOUGLAS        MOSUNNY   32  18  56 N3        30.32R
SAFFORD        PTCLDY    47  24  40 SE13      30.33R
$$

AZZ020-021-025-026-031-091600-
SOUTHWEST ARIZONA

CITY           SKY/WX    TMP DP  RH WIND       PRES   REMARKS
YUMA           CLEAR     61  28  28 N5        30.17R
$$

CAZ031-033-041-043-047-048-061-091600-
SOUTHERN CALIFORNIA

CITY           SKY/WX    TMP DP  RH WIND       PRES   REMARKS
DOWNTOWN L.A.  CLEAR     60  29  30 NE3       30.14R
L.A. AIRPORT   CLEAR     64  26  23 VRB5      30.14R
SAN DIEGO      CLEAR     59  32  36 CALM      30.13R
BURBANK        CLEAR     54  28  36 NW5       30.16R
ONTARIO        CLEAR     51  28  41 N8        30.17R
RIVERSIDE      CLEAR     55  27  34 NE6       30.18R
PALM SPRINGS   CLEAR     68  25  19 W8        30.21S
EL CENTRO NAS  CLEAR     46  21  37 W9        30.20R
IMPERIAL       FAIR      49  26  41 W6        30.18R
BLYTHE         CLEAR     53  28  38 NE8       30.23R
NEEDLES        CLEAR     61  27  27 N9        30.28S
$$

NVZ020-UTZ003-091600-
SOUTHERN NEVADA-UTAH

CITY           SKY/WX    TMP DP  RH WIND       PRES   REMARKS
LAS VEGAS      CLEAR     47  27  45 CALM      30.35R
SALT LAKE CITY PTCLDY    25  22  88 S3        30.60S FOG
$$

NMZ009-TXZ055-091600-
NEW MEXICO-WEST TEXAS

CITY           SKY/WX    TMP DP  RH WIND       PRES   REMARKS
ALBUQUERQUE    CLOUDY    33  21  61 NW7       30.43R WCI  27
EL PASO        SUNNY     33  15  47 N9        30.41R WCI  25
$$


........................KEY........................
SKY/WX - SKY CONDITION/WEATHER
TMP    - TEMPERATURE IN FAHRENHEIT
DP     - DEW POINT IN FAHRENHEIT
RH     - RELATIVE HUMIDITY IN PERCENT
WIND   - DIRECTION AND SPEED IN MILES PER HOUR (MPH)
VRB    - VARIABLE WIND DIRECTION
PRES   - MEAN SEA LEVEL PRESSURE IN INCHES OF MERCURY
         F - FALLING PRESSURE   R - RISING PRESSURE
         S - STEADY PRESSURE
VSB    - VISIBILITY IN MILES
HX     - HEAT INDEX IN FAHRENHEIT
WCI    - WIND CHILL INDEX IN FAHRENHEIT
TC     - TEMPERATURE IN CELSIUS WHICH IS ALSO KNOWN AS
         TEMPERATURE IN CENTIGRADE
AFB    - AIR FORCE BASE
         LUKE AFB IS LUKE AIR FORCE BASE
         DAVIS-MONTHAN IS DAVIS-MONTHAN AIR FORCE BASE
NAS    - NAVAL AIR STATION
         EL CENTRO NAS IS EL CENTRO NAVAL AIR STATION
N/A    - NOT AVAILABLE




USA.gov is the U.S. government's official web portal to all federal, state and local government web resources and services.